Volver al catálogo

STARLINK-11436

ActivoComunicacionesVLEO
NORAD 62887·PAYLOAD·🇺🇸 United States

Lanzado Feb 4, 2025 desde Cape Canaveral Space Force Station

Loading…

Próximos Pases (próximas 24 horas)

TLE

ActualizadoSource: CelesTrak SupGP

Época: Sep 15, 2026, 03:27 UTC

1 62887C 25024J   26258.14423611  .00102320  00000+0  79423-3 0  2582
2 62887  43.0004 119.4027 0001713 269.8721  96.6740 15.70802825    16

Sigue STARLINK-11436 en tiempo real con AllMySat

Download on the App Store